Probability
1 1 2 3 4 6 9 11 11 8 5 4 4 4 3 4 5 4 2 0 0 0 0 0 1 2 1 0 0 1 1 1 0 0 0 0 0 0 0 0 0 0 0
2 2 3 3 3 5 8 9 9 8 5 5 5 4 3 3 4 4 3 1 0 0 0 0 1 2 1 0 0 0 1 1 1 0 0 0 0 0 0 0 0 0 0
2 2 2 2 2 3 5 6 6 5 4 4 5 3 2 2 3 4 4 1 0 0 0 0 1 2 1 0 0 0 1 1 1 0 0 0 0 1 0 0 0 0 0
2 1 1 1 1 1 3 4 3 2 2 3 4 3 3 2 3 4 4 1 0 0 0 0 1 1 1 0 0 0 0 1 2 1 0 0 0 0 0 0 0 0 0
2 1 1 0 0 1 3 4 3 1 1 2 4 3 2 2 2 3 3 2 1 0 0 0 0 0 0 0 0 0 0 1 2 2 1 0 0 0 0 0 0 0 0
1 1 1 1 1 1 3 5 3 1 0 1 2 2 1 1 1 1 2 2 1 0 0 0 0 0 0 0 0 0 0 0 1 1 1 0 0 0 0 0 0 0 0
0 1 1 2 1 1 3 4 4 1 0 0 1 1 0 0 0 0 1 1 0 0 0 0 0 0 0 0 0 0 0 0 0 0 0 0 0 0 0 0 0 0 0
1 2 2 1 1 1 2 3 3 1 0 0 0 1 1 0 0 0 0 0 0 0 0 0 0 0 0 0 0 0 0 0 0 0 0 0 0 0 0 0 0 0 0
3 3 3 1 0 0 1 2 2 1 0 0 0 1 2 1 0 0 0 0 0 0 0 0 0 0 0 0 1 1 0 0 1 1 1 0 0 0 0 0 0 0 0
3 3 3 2 0 0 1 2 2 1 0 0 1 2 3 2 1 0 0 0 0 0 0 0 0 0 0 0 1 2 1 0 1 2 2 1 0 0 0 0 0 0 0
1 2 2 1 0 0 1 3 3 1 0 1 1 3 4 4 3 1 0 0 0 0 0 0 0 0 0 0 1 1 1 0 1 2 3 2 0 0 0 0 0 0 0
0 1 1 0 0 0 1 2 2 1 1 1 2 3 5 6 5 2 1 1 1 0 0 0 0 0 0 0 0 0 0 0 0 1 2 1 0 0 0 0 0 0 0
0 0 0 0 0 0 0 1 1 1 0 1 1 3 5 6 6 5 3 2 2 1 0 0 0 0 0 0 0 0 0 0 0 0 0 0 0 0 0 0 0 0 0
0 0 0 0 0 0 0 0 0 0 0 0 1 3 4 5 6 5 4 3 3 2 1 0 0 0 0 0 0 0 0 0 0 0 0 0 0 0 0 0 0 0 0
0 0 0 0 0 0 0 0 0 0 0 0 1 2 3 4 5 4 3 3 2 2 1 0 0 0 0 0 0 0 0 0 0 0 0 0 0 0 0 0 0 0 0
0 0 0 0 0 0 0 0 0 0 0 0 0 1 1 2 3 3 2 1 1 1 0 0 0 0 0 0 0 0 0 0 0 0 0 0 0 0 0 0 0 0 0
0 0 0 0 0 0 0 0 0 0 0 0 0 0 0 1 1 1 1 0 0 0 0 0 0 0 0 0 0 0 0 0 0 0 0 0 0 0 0 0 0 0 0
0 0 0 0 0 0 0 0 0 0 0 0 0 0 0 0 0 0 0 0 0 0 0 0 0 0 0 0 0 0 0 0 0 0 0 0 0 0 0 0 0 0 0
0 0 0 0 0 0 0 0 0 0 0 0 0 0 1 1 0 0 0 0 0 0 0 0 0 0 0 0 0 0 0 0 0 0 0 0 0 0 0 0 0 0 0
0 0 0 0 0 0 0 0 0 0 0 0 0 0 1 1 0 0 0 0 0 0 0 0 0 0 0 0 0 0 0 0 0 0 0 0 0 0 0 0 0 0 0
0 0 0 0 0 0 0 0 0 0 0 0 0 0 0 0 0 0 0 0 0 0 0 0 0 0 0 0 0 0 0 0 0 0 0 0 0 0 0 0 0 0 0
0 0 0 0 0 0 0 0 0 0 0 0 0 0 0 0 0 0 0 0 0 0 0 0 0 0 0 0 0 0 0 0 0 0 0 0 0 0 0 0 0 0 0
0 0 0 0 0 0 0 0 0 0 0 0 0 0 0 0 0 0 0 0 0 0 0 0 0 0 0 0 0 0 0 0 0 0 0 0 0 0 0 0 0 0 0
0 0 0 0 0 0 0 0 0 0 0 0 0 1 1 0 0 0 0 0 0 0 0 0 0 0 0 0 0 0 0 0 0 0 0 0 0 0 0 0 0 0 0
0 0 0 0 0 0 0 0 0 0 0 0 0 1 1 0 0 0 0 0 0 0 0 0 0 0 0 0 0 0 0 0 0 0 0 0 0 0 0 0 0 0 0
0 0 0 0 0 0 0 0 0 0 0 0 0 1 0 0 0 0 0 0 0 0 0 0 0 0 0 0 0 0 0 0 0 0 0 0 0 0 0 0 0 0 0
Wind_Speed
8 6 6 5 5 5 5 6 7 7 6 5 5 5 4 4 3 4 5 6 6 6 5 4 4 4 4 4 4 2 3 2 1 1 1 1 1 1 1 2 1 1 1
7 6 5 4 5 6 6 6 7 7 7 6 5 4 3 3 3 3 4 5 6 6 5 6 5 5 4 4 4 3 2 2 2 2 1 1 1 1 1 2 2 2 1
9 7 6 6 6 6 6 6 7 7 7 6 4 3 2 2 2 4 4 5 6 6 6 6 5 5 5 5 5 5 5 3 2 2 3 2 3 1 1 2 2 2 1
8 7 6 6 6 7 5 5 5 6 6 7 6 7 6 5 5 4 4 4 5 6 6 6 6 6 5 5 5 5 4 4 3 2 2 2 2 2 1 1 1 2 2
7 7 6 7 6 5 5 5 5 5 5 6 8 7 6 4 3 3 4 4 4 5 5 6 5 5 5 5 5 5 4 4 4 3 2 2 1 1 2 2 2 1 2
6 6 6 5 4 4 4 4 4 5 5 6 6 7 7 5 4 4 5 4 3 4 5 5 5 5 5 5 5 5 5 4 4 3 3 2 2 3 3 3 3 3 2
5 4 4 4 4 4 4 4 5 5 5 6 6 7 7 7 7 6 6 5 3 3 5 4 5 5 5 5 5 5 4 4 5 4 3 3 3 2 3 3 2 2 2
4 4 4 3 4 4 4 4 5 5 5 6 6 5 5 4 4 5 4 5 4 4 4 5 4 5 5 5 4 4 4 4 4 5 4 3 3 2 3 3 2 2 2
5 5 4 3 3 3 3 4 4 4 5 5 5 5 5 5 4 4 4 3 3 3 4 4 4 4 5 5 5 4 4 4 4 4 4 3 3 2 2 2 3 3 3
5 5 4 3 2 2 1 1 2 3 4 4 4 4 5 5 4 4 4 4 3 3 4 4 4 4 4 4 4 4 4 5 4 4 4 3 2 2 2 3 3 3 4
5 5 4 4 2 1 1 0 1 1 2 3 3 3 4 4 4 4 4 4 4 4 4 4 4 4 4 4 4 4 4 5 4 4 4 4 3 3 3 2 3 3 3
6 5 5 5 3 2 1 0 1 1 2 2 3 3 3 4 4 4 4 4 4 3 4 4 4 4 4 4 5 5 5 5 5 5 5 4 3 4 3 3 3 4 4
7 6 6 5 4 4 3 2 1 1 1 2 3 3 3 4 4 4 4 4 4 3 3 4 4 4 4 4 4 4 4 4 5 5 5 5 4 4 3 3 3 3 3
6 6 6 5 5 4 4 3 2 1 1 1 2 3 3 4 4 3 3 4 4 3 4 4 4 4 4 4 4 4 4 4 4 4 5 5 5 5 5 4 4 3 3
7 7 7 6 5 4 4 3 3 2 1 0 1 2 2 2 3 3 3 3 3 3 4 3 3 3 3 4 4 4 4 4 3 3 4 5 6 7 6 4 4 4 3
7 7 7 7 7 5 4 4 3 3 1 1 1 1 1 2 2 2 3 2 2 2 3 3 3 3 3 5 5 4 4 4 4 3 3 4 5 6 7 7 7 6 5
7 7 7 7 7 6 4 3 3 3 2 1 2 1 1 1 2 2 2 2 3 3 3 3 3 3 4 6 5 5 3 3 3 4 3 3 4 4 4 5 5 5 6
6 7 7 7 7 6 4 3 3 3 2 2 2 2 1 1 1 2 2 3 3 3 3 3 4 3 4 5 5 4 2 2 3 3 3 4 4 4 4 3 3 3 3
7 7 6 6 6 5 4 4 3 3 3 2 2 2 1 1 1 2 2 2 3 3 3 3 4 4 4 4 4 3 2 2 2 2 2 3 4 6 5 3 2 1 1
6 6 6 5 5 5 4 3 3 3 3 3 3 2 1 1 2 2 2 2 2 2 2 2 3 3 4 4 4 3 2 2 2 1 2 3 3 5 4 3 3 2 2
6 6 5 4 4 4 3 3 3 4 4 4 2 2 1 2 2 2 1 2 2 2 2 2 2 2 3 4 4 3 2 2 2 2 2 2 3 3 3 3 3 3 1
6 6 5 4 4 3 2 3 4 4 4 3 2 1 1 1 1 1 1 2 2 2 2 2 1 1 2 2 3 3 3 2 2 2 2 2 2 2 2 1 2 2 1
6 5 4 5 4 3 2 3 5 4 3 3 2 1 1 1 0 1 1 1 2 2 2 2 2 1 1 1 2 2 3 3 1 1 2 2 2 1 1 2 2 2 1
5 5 4 5 5 4 3 3 4 3 2 2 2 1 0 0 0 1 1 2 2 2 2 2 2 1 1 1 1 1 2 2 2 2 3 3 3 2 3 2 2 1 1
5 4 4 5 5 4 4 4 3 2 2 2 1 1 1 1 1 1 1 2 3 3 3 3 3 3 2 3 2 1 1 2 2 3 2 2 2 2 1 1 1 1 1
4 4 5 5 5 4 4 4 3 2 1 1 1 1 1 0 0 1 1 2 2 2 3 3 3 2 3 3 2 2 2 3 5 4 2 2 1 1 1 1 0 0 0
Wind_Direction
264 263 253 244 237 221 215 212 205 195 178 176 179 181 191 194 198 203 191 191 189 186 182 182 178 178 180 183 174 168 165 172 150 116 327 311 250 221 218 207 194 200 205
273 266 258 244 236 224 216 216 211 200 189 187 182 181 178 189 198 198 192 193 190 188 189 184 184 184 180 181 181 173 166 180 174 155 144 289 291 269 229 208 197 204 197
255 259 254 246 235 229 221 218 217 208 194 181 163 149 140 145 180 194 198 196 193 192 190 189 188 189 187 192 191 185 183 185 200 188 168 179 225 275 272 221 208 198 189
255 254 249 249 235 232 228 221 219 210 193 180 177 177 186 197 202 195 195 192 194 193 188 187 189 190 191 195 198 194 196 182 192 207 210 192 175 181 261 278 226 206 202
258 255 249 246 238 229 223 217 213 208 192 184 185 187 197 201 194 184 183 191 196 196 190 186 188 192 195 195 195 194 194 197 196 191 189 191 196 191 193 254 266 258 224
270 259 255 249 242 236 225 213 204 204 190 185 187 192 195 190 186 190 189 193 197 196 191 187 189 191 192 195 198 197 196 199 198 194 190 189 188 188 190 218 246 259 257
285 276 270 252 242 239 231 220 202 201 193 187 192 196 197 194 196 195 191 188 195 202 196 190 189 189 192 196 195 194 196 194 194 196 200 202 216 203 189 193 230 253 279
300 293 277 263 251 245 232 224 207 200 193 192 195 192 194 197 200 197 192 194 200 202 190 188 190 190 185 193 193 194 201 194 196 201 199 199 208 211 205 192 191 251 274
310 298 291 283 271 259 242 223 206 200 197 197 192 190 193 195 196 188 186 190 192 188 179 184 189 193 186 187 188 196 199 192 199 201 201 204 206 207 214 200 190 198 238
324 319 317 316 309 282 272 246 199 193 192 185 185 189 192 191 186 178 182 186 187 180 178 184 188 192 187 182 180 190 192 192 199 198 195 204 203 204 206 203 201 206 216
325 322 328 330 319 323 339 83 197 178 181 179 177 181 189 186 182 184 191 188 187 182 185 185 186 188 185 182 179 190 191 192 198 202 199 208 201 200 205 201 196 201 206
340 338 340 345 345 338 346 5 242 204 197 187 177 182 186 183 188 192 195 187 189 187 193 185 184 188 186 188 187 190 194 194 199 204 200 206 200 199 203 204 207 209 207
347 348 352 354 353 352 356 359 332 261 211 185 183 186 187 190 198 198 194 189 187 187 195 186 187 189 192 194 199 194 195 198 202 201 202 205 196 205 207 209 219 222 216
343 348 350 351 351 352 352 350 347 338 305 202 193 197 198 200 204 199 192 188 186 192 197 194 195 192 193 197 200 193 191 195 200 207 207 207 205 210 205 211 216 217 213
343 345 342 343 347 346 345 343 344 346 337 315 240 229 218 202 191 184 186 184 187 200 190 185 186 187 195 199 196 187 188 192 191 204 211 211 210 213 213 214 210 207 211
332 333 336 338 337 333 329 334 338 339 344 335 294 272 225 202 191 184 180 171 181 179 171 180 180 195 213 212 211 192 186 189 191 202 216 214 214 219 221 224 223 214 214
325 328 330 325 321 320 315 319 324 337 348 320 297 288 263 214 202 189 177 178 180 176 174 182 184 204 215 211 209 204 190 188 197 203 212 217 216 219 215 221 226 230 230
323 322 321 319 317 315 321 322 327 339 339 324 308 297 267 235 216 193 192 191 186 183 184 188 192 198 211 210 207 195 182 189 203 211 212 214 217 209 205 198 205 224 233
309 308 307 306 313 320 325 332 321 327 329 313 296 283 261 239 222 210 200 193 187 193 192 187 187 190 203 206 196 181 169 178 204 219 225 214 202 201 195 180 192 231 270
314 315 316 319 322 322 329 340 332 328 316 301 292 283 257 227 228 221 209 198 193 200 193 194 191 194 200 203 196 187 176 178 190 216 208 209 203 188 189 180 186 214 249
318 323 326 326 318 321 331 332 332 315 301 295 288 288 271 238 225 211 196 183 184 174 175 188 202 200 201 203 205 206 190 190 189 197 202 218 207 188 196 197 196 218 226
331 334 337 333 331 333 336 331 317 305 305 304 299 298 292 265 226 166 177 170 169 171 173 178 201 207 206 208 215 219 221 211 195 195 199 206 208 182 168 181 182 174 127
328 328 329 328 331 336 338 321 312 319 326 331 324 312 309 285 206 167 173 171 175 182 188 189 203 215 211 223 234 228 213 201 186 185 183 167 167 151 131 120 96 92 103
325 327 331 329 325 329 333 317 314 319 326 327 322 320 326 300 240 193 194 189 193 196 195 196 205 211 218 228 224 200 185 172 158 142 144 135 124 86 83 84 63 46 83
322 327 325 319 317 321 324 322 322 325 325 326 327 327 309 265 269 255 228 221 219 216 199 195 194 192 215 237 249 192 183 167 149 118 110 105 98 90 72 53 44 43 52
320 324 325 322 319 323 323 325 327 326 319 328 327 308 295 276 247 253 303 294 253 244 230 215 202 213 232 228 218 198 174 156 142 124 136 141 143 148 152 152 76 36 31